Location: Lombard
(41.8800°N, 88.0080°W)
Time: 22:47:14
(UTC-05:00)

Transit 2A - Pass Details

Date: 12 February 2023
Orbit: 591 x 964 km, 66.7° (Epoch: 20 March)

Event Time Altitude Azimuth Distance (km) Brightness Sun altitude
Rises 00:37:52 0° 322° (NW) 3,566 - -61.1°
Reaches altitude 10° 00:40:31 10° 314° (NW) 2,655 - -60.9°
Maximum altitude 00:46:12 38° 249° (WSW) 1,437 - -60.6°
Drops below altitude 10° 00:51:58 10° 184° (S) 2,687 - -60.2°
Sets 00:54:41 0° 177° (S) 3,615 - -60.0°
